Flag for Belarus Weather past 2 weeks in Minsk, Belarus

Now
61 °F

Mostly cloudy.


Feels Like: 61 °F
Forecast: 49 / 65 °F
Wind: No wind

Location: Loshitsa / Minsk International 1

Current Time: Sep 4, 2015 at 8:39:09 PM

Latest Report: Sep 4, 2015 at 8:00 PM


Visibility: N/A

Pressure: 29.86 "Hg

Humidity: 77%

Dew point: 54 °F

Location of MinskLocation

Historic Weather in Minsk — Graph

°F

Minsk temperature yesterday

Maximum temperature yesterday: 63 °F (at 3:00 PM)
Minimum temperature yesterday: 59 °F (at 7:30 AM)
Average temperature yesterday: 60 °F

Past Weeks' High & Low Weather Summary

 TemperatureHumidityPressure
High86 °F (Aug 25, 4:00 PM)100% (Aug 26, 9:00 AM)30.39 "Hg (Aug 26, 9:00 AM)
Low52 °F (Sep 4, 7:30 AM)25% (Aug 21, 6:00 PM)29.71 "Hg (Sep 2, 8:00 AM)
Average70 °F52%30.08 "Hg
* Reported Aug 20 7:00 PM — Sep 4 7:30 PM, Minsk, Weather by CustomWeather, © 2015

Note: Actual official high and low records may vary slightly from our data, if they occured in-between our weather recording intervals... More about our weather records

Advertising

Minsk weather history for previous 24 hours

 ConditionsComfort  
Time TempWeatherWind HumidityBarometerVisibility
7:30 PM
Fri, Sep 4
63 °FSprinkles. Mostly cloudy.No wind68%29.86 "HgN/A
7:00 PM63 °FMostly cloudy.1 mph68%29.86 "HgN/A
6:30 PM63 °FMostly cloudy.3 mph64%29.86 "HgN/A
6:00 PM63 °FMostly cloudy.3 mph64%29.86 "HgN/A
5:30 PM64 °FMostly cloudy.3 mph56%29.86 "HgN/A
5:00 PM64 °FSprinkles. Mostly cloudy.No wind56%29.86 "HgN/A
4:30 PM66 °FMostly cloudy.No wind52%29.89 "HgN/A
4:00 PM66 °FMostly cloudy.No wind52%29.89 "HgN/A
3:30 PM66 °FMostly cloudy.1 mph56%29.92 "HgN/A
3:00 PM66 °FMostly cloudy.No wind56%29.92 "HgN/A
2:30 PM66 °FMostly cloudy.No wind52%29.92 "HgN/A
2:00 PM66 °FMostly cloudy.No wind52%29.92 "HgN/A
1:30 PM66 °FMostly cloudy.No wind52%29.92 "HgN/A
1:00 PM66 °FMostly cloudy.No wind52%29.92 "HgN/A
12:30 PM66 °FPartly sunny.1 mph52%29.95 "HgN/A
12:00 PM66 °FPartly sunny.No wind52%29.95 "HgN/A
11:30 AM66 °FBroken clouds.No wind60%29.95 "HgN/A
11:00 AM66 °FBroken clouds.1 mph60%29.95 "HgN/A
10:30 AM63 °FSunny.No wind68%29.98 "Hg10 mi
10:00 AM61 °FSunny.No wind72%29.95 "Hg10 mi
9:30 AM59 °FSunny.No wind77%29.95 "Hg10 mi
9:00 AM59 °FSunny.3 mph77%29.95 "Hg10 mi
8:30 AM55 °FSunny.No wind82%29.95 "Hg10 mi
8:00 AM55 °FSunny.1 mph82%29.95 "Hg10 mi
7:30 AM52 °FPartly sunny.No wind94%29.95 "HgN/A
Weather by CustomWeather, © 2015

See weather overviewHow to use our weather pages